Showing default

ICEYE-X5, 44389

Orbit data source: Space-Track

ICEYE-X5, 44389 is a payload satellite owned by ICEYE (FI) in SSO that was launched on Fri, 05 Jul 2019 UTC via a SOYUZ-2-1B launch vehicle from the Vostochny Cosmodrome (VOSTO). Payload-class satellites include a variety of spacecraft equipped with specific instruments for various scientific and technological missions. These include communications satellites like Starlink; space stations such as the ISS; scientific satellites like the Hubble; Earth observation satellites from companies like Planet Labs, Umbra, and HawkEye 360; GPS; miniature CubeSats for education and research; and military/defense satellites.

Loading next visibility...
Identifier
44389, 2019-038C
Orbit
SSO
Country
Flag of FIFI / FIN
Related business
Manufacturer
ICEYE
Mission
Non-operational Commercial Radar Imaging
Bus & Motor
ICEYE, Unknown motor
Mass
80 kg wet, 80 kg dry
Launch date (UTC)
2019-07-05 (7 years ago)
Launch vehicle
SOYUZ-2-1B
Launch site
Vostochny Cosmodrome (VOSTO)
Object type
Payload
Rocket body
Debris
Shape & HBR
Box + 1 Pan, 1.6 m
Radar Cross Section
1.837 m², Medium (>0.1 m² and < 1m²)

Expand to show TLE details & history
Last TLE update: 12 hours ago

TLE from 12 hours ago
0 ICEYE-X5
1 44389U 19038C   26235.63345595  .00054576  00000-0  63934-3 0  9992
2 44389  97.8630 297.3932 0003582  24.8286 335.3142 15.61365433393469
Epoch: 2026-08-23T15:12Z
TLE epoch observation values (Epoch: 2026-08-23T15:12:10.594Z)
Latitude
0.00002°
Longitude
97.42235°
Altitude
384.643 km
Speed
7.68 km/s
True Right ascension
19h 49m 34s
True Declination
0° 00' 00"
Sunlit
Object was in full shadow at epoch
Visualization orbit readout
Latitude
Unknown
Longitude
Unknown
Altitude
Unknown
Speed
Unknown
Apparent Right ascension
Unknown
Apparent Declination
Unknown
Sunlit
N/A
Visualization observer readout
Local Sidereal Time
18:13:39
Azimuth
Unknown
Elevation
Unknown
Doppler factor
Unknown
Orbital elements
Apogee altitude
383.064 km
Perigee altitude
378.222 km
Semi-major axis
6,758.78 km
Eccentricity
0.00036
Inclination
97.863°
RAAN
297.3932°
Arg. of periapsis
24.8286°
True anomaly
335.29705°
Mean anomaly
335.3142°
Eccentric anomaly
335.30563°
Mean motion
3.90608 °/min
Orbital period
92.16 mins
BSTAR
0.00063934
Loading maneuver chart data...
Computing Atmospheric mass density...
Loading historical data...
Loading historical data...
Loading historical data...
Loading historical data...
Loading historical data...
Loading historical data...
Loading historical data...

Documentation

Showing up to 5 results
|